Regional Weather Roundup
Issued by NWS

Home | Current Version | Previous Version | Text Only | Print | Product List | Glossary Off
Versions: 1 2 3 4 5 6 7 8 9 10 11 12 13 14 15 16 17 18 19 20 21 22 23 24 25 26 27 28 29 30 31 32 33 34 35 36 37 38 39 40 41 42 43 44 45 46 47 48 49 50

000
ASUS43 KMKX 271821
RWRWI

WISCONSIN REGIONAL WEATHER ROUNDUP
NATIONAL WEATHER SERVICE MILWAUKEE/SULLIVAN WI
100 PM CDT FRI MAY 27 2016

NOTE: "FAIR" INDICATES FEW OR NO CLOUDS BELOW 12,000 FEET WITH NO
SIGNIFICANT WEATHER AND/OR OBSTRUCTIONS TO VISIBILITY.

WIZ001-002-006>008-014>016-023>028-271900-
NORTHWEST WISCONSIN

CITY           SKY/WX    TMP DP  RH WIND       PRES   REMARKS
SUPERIOR ARPT  LGT RAIN  47  47 100 E6        29.91F
6HR MIN TEMP:  45; 6HR MAX TEMP:  48; 6HR PCP:  0.05;

ASHLAND        CLOUDY    53  49  86 N9        29.90R
6HR MIN TEMP:  51; 6HR MAX TEMP:  59;

HAYWARD        CLOUDY    67  58  72 CALM      29.87R
6HR MIN TEMP:  55; 6HR MAX TEMP:  67; 6HR PCP: TRACE;

SIREN          DRIZZLE   65  62  88 NE8       29.83S
6HR MIN TEMP:  60; 6HR MAX TEMP:  65; 6HR PCP:  0.05;

CUMBERLAND     RAIN      66  57  72 NE7       29.84R
RICE LAKE      CLOUDY    67  59  74 NE6       29.84F
6HR MIN TEMP:  60; 6HR MAX TEMP:  69;

CHETEK         CLOUDY    67  59  76 E7        29.82F
6HR MIN TEMP:  59; 6HR MAX TEMP:  67;

LADYSMITH      CLOUDY    69  57  66 E7        29.86S
6HR MIN TEMP:  58; 6HR MAX TEMP:  69;

EAU CLAIRE     CLOUDY    73  60  63 E12       29.79F
6HR MIN TEMP:  60; 6HR MAX TEMP:  73; 6HR PCP: TRACE;

MENOMONIE      PTSUNNY   70  69  95 NE6       29.80F
6HR MIN TEMP:  62; 6HR MAX TEMP:  71; 6HR PCP:  0.12;

NEW RICHMOND   CLOUDY    64  62  95 NE7       29.81F
6HR MIN TEMP:  62; 6HR MAX TEMP:  64; 6HR PCP:  0.06;

OSCEOLA        LGT RAIN  64  64 100 N7        29.84S
6HR MIN TEMP:  63; 6HR MAX TEMP:  65; 6HR PCP:  0.06;

$$

WIZ003>005-009-010-017-018-271900-
NORTH CENTRAL WISCONSIN

CITY           SKY/WX    TMP DP  RH WIND       PRES   REMARKS
MANITOWISH WTR NOT AVBL
ARBOR VITAE    CLOUDY    72  63  73 SE5       29.90S
6HR MIN TEMP:  57; 6HR MAX TEMP:  72;

WOODRUFF       CLOUDY    72  63  73 SE5       29.90S
6HR MIN TEMP:  57; 6HR MAX TEMP:  72;

RHINELANDER    CLOUDY    69  59  70 E5        29.90S
6HR MIN TEMP:  56; 6HR MAX TEMP:  69; 6HR PCP: TRACE;

EAGLE RIVER      N/A     70  57  63 E6        29.90F
LAND O LAKES   CLOUDY    71  59  67 E5        29.91F
6HR MIN TEMP:  55; 6HR MAX TEMP:  71;

PHILLIPS       LGT RAIN  67  59  77 E7        29.88S
6HR MIN TEMP:  54; 6HR MAX TEMP:  69; 6HR PCP:  0.01;

TOMAHAWK       CLOUDY    67  59  73 E3        29.89S
6HR MIN TEMP:  54; 6HR MAX TEMP:  68;

MEDFORD        CLOUDY    70  60  71 E8        29.85F
6HR MIN TEMP:  58; 6HR MAX TEMP:  70;

MERRILL        CLOUDY    72  64  78 E5        29.87F
$$

WIZ029-030-035-036-043>047-271900-
CENTRAL WISCONSIN

CITY           SKY/WX    TMP DP  RH WIND       PRES   REMARKS
WAUSAU         CLOUDY    72  61  68 E8        29.84F
6HR MIN TEMP:  61; 6HR MAX TEMP:  74; 6HR PCP: TRACE;

MOSINEE        CLOUDY    70  63  78 E8        29.87S
MARSHFIELD     CLOUDY    76  60  57 SE17      29.83F
6HR MIN TEMP:  63; 6HR MAX TEMP:  78; 6HR PCP: TRACE;

STEVENS POINT  CLOUDY    71  61  70 SE7       29.86S
6HR MIN TEMP:  60; 6HR MAX TEMP:  71;

WAUPACA        CLOUDY    72  68  88 E5        29.87S
6HR MIN TEMP:  63; 6HR MAX TEMP:  74; 6HR PCP:  0.01;

WAUTOMA        CLOUDY    73  65  75 E6        29.86S
6HR MIN TEMP:  62; 6HR MAX TEMP:  73;

WISC RAPIDS    CLOUDY    77  59  53 SE13      29.85F
6HR MIN TEMP:  61; 6HR MAX TEMP:  79; 6HR PCP: TRACE;

CAMP DOUGLAS   CLOUDY    76  73  90 SE8G17    29.82F
6HR MIN TEMP:  63; 6HR MAX TEMP:  78; 6HR PCP:  0.02;

$$

WIZ011>013-019>022-031-037>040-048>050-271900-
NORTHEAST WISCONSIN

CITY           SKY/WX    TMP DP  RH WIND       PRES   REMARKS
ANTIGO         CLOUDY    69  62  78 E8        29.90S
6HR MIN TEMP:  58; 6HR MAX TEMP:  71;

SHAWANO        DRIZZLE   72  65  78 S7        29.91R
6HR MIN TEMP:  62; 6HR MAX TEMP:  76;

OCONTO         CLOUDY    62  62 100 CALM      29.91R
6HR MIN TEMP:  62; 6HR MAX TEMP:  69; 6HR PCP:  0.04;

STURGEON BAY   NOT AVBL
GREEN BAY      CLOUDY    67  66  97 NE8       29.88F FOG
6HR MIN TEMP:  66; 6HR MAX TEMP:  75;

MANITOWOC      CLOUDY    57  55  93 SE9       29.90F FOG
6HR MIN TEMP:  56; 6HR MAX TEMP:  67;

APPLETON       CLOUDY    66  66 100 NE7       29.87F
CLINTONVILLE   LGT RAIN  68  64  88 E6        29.88S
OSHKOSH        CLOUDY    71  66  84 E6        29.86F
6HR MIN TEMP:  66; 6HR MAX TEMP:  74; 6HR PCP:  0.31;

$$

WIZ032>034-041-042-053>061-271900-
SOUTHWEST WISCONSIN

CITY           SKY/WX    TMP DP  RH WIND       PRES   REMARKS
LA CROSSE      CLOUDY    75  62  64 SE10      29.77F
6HR MIN TEMP:  65; 6HR MAX TEMP:  75; 6HR PCP:  0.03;

SPARTA         CLOUDY    74  62  66 S9        29.82S
6HR MIN TEMP:  63; 6HR MAX TEMP:  75;

VIROQUA        CLOUDY    71  62  74 SE12      29.82F
6HR MIN TEMP:  62; 6HR MAX TEMP:  73;

BOSCOBEL       CLOUDY    75  64  68 VRB5      29.81F
6HR MIN TEMP:  65; 6HR MAX TEMP:  77;

PRAIRIE DU CHI CLOUDY    72  62  71 SE8       29.80S
6HR MIN TEMP:  64; 6HR MAX TEMP:  73;

PLATTEVILLE    CLOUDY    74  67  80 S16       29.83S
$$

WIZ056-057-062-063-064-067-068-271900-
SOUTH CENTRAL WISCONSIN

CITY           SKY/WX    TMP DP  RH WIND       PRES   REMARKS
REEDSBURG      PTSUNNY   72  65  77 S7        29.84S
6HR MIN TEMP:  61; 6HR MAX TEMP:  75;

BARABOO/DELLS  PTSUNNY   74  63  69 S6        29.84S
6HR MIN TEMP:  62; 6HR MAX TEMP:  74; 6HR PCP:  0.24;

LONE ROCK      CLOUDY    74  64  71 SE5       29.82F
6HR MIN TEMP:  64; 6HR MAX TEMP:  75;

MINERAL POINT  CLOUDY    75  66  73 SE8       29.82F
MADISON        PTSUNNY   76  64  66 S7        29.83F
6HR MIN TEMP:  64; 6HR MAX TEMP:  77; 6HR PCP: TRACE;

MIDDLETON      PTSUNNY   78  64  62 S10       29.84F HX  80
6HR MIN TEMP:  65; 6HR MAX TEMP:  78;

WATERTOWN      CLOUDY    78  66  66 S10G18    29.85F HX  80
6HR MIN TEMP:  67; 6HR MAX TEMP:  78;

MONROE         CLOUDY    77  63  61 SE15      29.83F
JANESVILLE     CLOUDY    81  64  57 SE12G17   29.84F HX  82
$$

WIZ051-052-058>065-066-070>072-271900-
SOUTHEAST WISCONSIN

CITY           SKY/WX    TMP DP  RH WIND       PRES   REMARKS
MILWAUKEE      PTSUNNY   78  69  73 SE12      29.87F HX  80
6HR MIN TEMP:  69; 6HR MAX TEMP:  78;

WAUKESHA       PTSUNNY   75  66  73 S7        29.88F
MILWAUKEE/TIMM PTSUNNY   77  64  65 S10       29.87F
RACINE         PTSUNNY   76  66  71 S13       29.89F
6HR MIN TEMP:  69; 6HR MAX TEMP:  76;

BURLINGTON     MOSUNNY   80  64  58 SE12      29.86F HX  82
6HR MIN TEMP:  66; 6HR MAX TEMP:  80;

KENOSHA        MOSUNNY   80  67  64 S10G16    29.87F HX  82
6HR MIN TEMP:  71; 6HR MAX TEMP:  80; 6HR PCP: TRACE;

FOND DU LAC    CLOUDY    74  65  73 NE3       29.87F
6HR MIN TEMP:  67; 6HR MAX TEMP:  75; 6HR PCP:  0.02;

SHEBOYGAN      CLOUDY    71  65  81 S10       29.88F
6HR MIN TEMP:  61; 6HR MAX TEMP:  72;

WEST BEND      LGT RAIN  70  68  94 W6        29.87S VSB 3/4
JUNEAU         CLOUDY    74  65  72 S3        29.87F
6HR MIN TEMP:  65; 6HR MAX TEMP:  74;

$$

LSZ147-162-271900-
LAKE SUPERIOR

STATION/POSITION TIME  TEMP    WIND        PRES    WAVE
                       AIR SEA DIR/SP/G            HT/PER
                 (UTC) (F)     (DEG/KT/KT) (MB)    (FT/S)
W MID LAKE BUOY  1750   40 38  360/  6/  6 1013.5S   0
DEVILS ISLAND    1800   43      60/  9/  9 1013.9R
SAXON HARBOR     1700   47      40/  1/  3 1011.9
$$

LMZ867-665-643>646-271900-
LAKE MICHIGAN

STATION/POSITION TIME  TEMP    WIND        PRES    WAVE
                       AIR SEA DIR/SP/G            HT/PER
                 (UTC) (F)     (DEG/KT/KT) (MB)    (FT/S)
CHAMBERS ISLAND  1700   59     350/  5/  7 1012.5F
N MID LAKE BUOY  1750   49 46   40/  8/  8 1012.7F   0
NORTHPORT PIER   1800   54     150/  8/ 12 1013.5R
SISTER BAY       1705   68     150/ 11/ 16   N/A
ALGOMA LAKESHORE 1717          160/  5/  7   NC1F1C2F2C3F3C4F4C5F5C6F6C7F7C8M1C9M2Ca!


USA.gov is the U.S. government's official web portal to all federal, state and local government web resources and services.